Change the Weather History Date:

Monday, April 28, 2014

  Actual Average Record
Temperature  
Mean Temperature 45 °F 39 °F  
Max Temperature 59 °F 48 °F 68 °F (2005)
Min Temperature 31 °F 30 °F 8 °F (1964)
Degree Days  
Heating Degree Days 20 26  
Month to date heating degree days 754 888  
Since 1 July heating degree days 8358 9771  
Cooling Degree Days 0    
Month to date cooling degree days 0  
Year to date cooling degree days 0  
Moisture  
Dew Point 34 °F    
Average Humidity 0    
Maximum Humidity 0    
Minimum Humidity 0    
Precipitation  
Precipitation 0.00 in 0.04 in 0.52 in (1983)
Month to date precipitation 0.52 0.90  
Year to date precipitation 3.09 3.38  
Snow  
Snow 0.00 in 0.10 in 2.50 in (2010)
Month to date snowfall 0.5 3.8  
Since 1 July snowfall 36.0 45.7  
Snow Depth 0.00 in    
Sea Level Pressure  
Sea Level Pressure 29.74 in    
Wind  
Wind Speed 7 mph (ESE)    
Max Wind Speed 15 mph    
Max Gust Speed 29 mph    
Visibility 10 miles    
Events      
T = Trace of Precipitation, MM = Missing Value Source: NWS Daily Summary

Daily Weather History Graph

Daily Weather History Graph

Search for Another Location

Airport or City:

Trip Planner

Search our weather history database for the weather conditions in past years. The results will help you decide how hot, cold, wet, or windy it might be!

Date:

Astronomy

Apr. 28, 2014 Rise Set
Actual Time 6:38 AM AKDT 10:11 PM AKDT
Civil Twilight 5:49 AM AKDT 11:00 PM AKDT
Nautical Twilight 4:40 AM AKDT 12:11 AM AKDT
Astronomical Twilight 2:56 AM AKDT 1:51 AM AKDT
Moon 6:36 AM AKDT 9:56 PM AKDT
Length of Visible Light 17h 11m
Length of Day
15h 33m
Waning Crescent, 0% of the Moon is Illuminated
Apr 28
Waning Crescent
Apr 28
New
May 6
First Quarter
May 14
Full
May 21
Last Quarter

Hourly Weather History & Observations

Time (AKDT) Temp. Windchill Dew Point Humidity Pressure Visibility Wind Dir Wind Speed Gust Speed Precip Events Conditions
12:54 AM 42.1 °F 39.2 °F 34.0 °F 73% 29.50 in 10.0 mi East 4.6 mph - N/A   Mostly Cloudy
1:54 AM 39.9 °F 35.8 °F 34.0 °F 79% 29.52 in 10.0 mi NNE 5.8 mph - N/A   Mostly Cloudy
2:54 AM 39.0 °F - 33.1 °F 79% 29.55 in 10.0 mi Calm Calm - N/A   Mostly Cloudy
3:54 AM 37.0 °F - 33.1 °F 86% 29.57 in 10.0 mi Calm Calm - N/A   Scattered Clouds
4:54 AM 34.0 °F 29.8 °F 32.0 °F 92% 29.59 in 10.0 mi North 4.6 mph - N/A   Mostly Cloudy
5:54 AM 33.1 °F 30.0 °F 30.9 °F 92% 29.61 in 10.0 mi North 3.5 mph - N/A   Mostly Cloudy
6:54 AM 30.9 °F 24.3 °F 30.0 °F 96% 29.63 in 10.0 mi North 6.9 mph - N/A   Mostly Cloudy
7:54 AM 35.1 °F - 30.9 °F 85% 29.65 in 10.0 mi Calm Calm - N/A   Mostly Cloudy
8:54 AM 43.0 °F - 34.0 °F 71% 29.68 in 10.0 mi Calm Calm - N/A   Mostly Cloudy
9:54 AM 48.0 °F - 36.0 °F 63% 29.70 in 10.0 mi South 3.5 mph - N/A   Scattered Clouds
10:54 AM 53.1 °F - 35.1 °F 50% 29.72 in 10.0 mi East 8.1 mph - N/A   Scattered Clouds
11:54 AM 54.0 °F - 34.0 °F 47% 29.73 in 10.0 mi NE 13.8 mph 18.4 mph N/A   Scattered Clouds
12:54 PM 57.0 °F - 34.0 °F 42% 29.74 in 10.0 mi East 12.7 mph 18.4 mph N/A   Scattered Clouds
1:54 PM 57.0 °F - 33.1 °F 40% 29.76 in 10.0 mi East 11.5 mph 17.3 mph N/A   Scattered Clouds
2:54 PM 57.0 °F - 33.1 °F 40% 29.78 in 10.0 mi SSE 6.9 mph 16.1 mph N/A   Partly Cloudy
3:54 PM 57.9 °F - 32.0 °F 37% 29.80 in 10.0 mi East 10.4 mph 17.3 mph N/A   Partly Cloudy
4:54 PM 57.9 °F - 32.0 °F 37% 29.82 in 10.0 mi East 8.1 mph - N/A   Partly Cloudy
5:54 PM 57.9 °F - 30.9 °F 36% 29.83 in 10.0 mi ESE 9.2 mph - N/A   Scattered Clouds
6:54 PM 55.9 °F - 36.0 °F 47% 29.87 in 10.0 mi SSW 12.7 mph - N/A   Scattered Clouds
7:54 PM 55.0 °F - 35.1 °F 47% 29.89 in 10.0 mi SSW 13.8 mph 20.7 mph N/A   Scattered Clouds
8:54 PM 52.0 °F - 36.0 °F 54% 29.91 in 10.0 mi SSW 11.5 mph - N/A   Scattered Clouds
9:54 PM 50.0 °F - 37.0 °F 61% 29.93 in 10.0 mi South 9.2 mph - N/A   Scattered Clouds
10:54 PM 45.0 °F 40.1 °F 37.9 °F 76% 29.95 in 10.0 mi South 9.2 mph - N/A   Scattered Clouds
11:54 PM 41.0 °F 36.4 °F 36.0 °F 82% 29.99 in 10.0 mi South 6.9 mph - N/A   Scattered Clouds